Vorticity
15 13 17 7 -8 -2 9 17 10 3 2 0 3 3 5 5 4 3 1 3 6 7 7 5 5 4 3 3 4 4 3 2 4 5 2 2 3 2 1 -1 2 3 4 12 2 -4 22 25 6 8 4 -0 6 7 4 -3 2 12 7 5 6 3 4 3 1 2 3 2 1 3 4 4 6 8 8 7 4 4 5 6 5 4 6 6 6 6 5 5
10 14 10 4 8 3 -11 6 13 5 5 1 1 2 4 5 4 4 1 2 5 7 7 6 5 5 5 3 3 4 4 3 2 4 6 4 3 2 2 2 1 3 4 8 11 -4 9 35 16 8 13 -1 -0 7 6 0 -2 10 11 4 6 5 4 3 1 2 4 3 1 2 4 3 5 8 7 6 5 5 6 6 5 5 5 6 6 6 5 4
5 12 15 2 10 20 -6 -6 12 9 5 3 2 1 3 6 5 5 3 1 3 7 8 7 7 5 5 3 2 3 3 4 2 3 6 4 4 4 1 3 -0 0 4 4 12 2 -1 37 31 6 14 3 -5 4 6 4 -2 5 11 6 5 5 4 3 1 1 4 4 2 2 3 4 5 7 7 7 8 5 5 6 5 6 6 7 7 5 5 4
12 1 12 16 9 20 8 -4 10 16 12 7 3 2 3 5 5 4 4 3 1 5 8 7 7 6 5 5 3 3 3 4 3 4 5 4 3 3 3 3 1 -0 5 3 10 9 -8 23 40 10 5 5 -2 1 4 3 -0 1 8 9 5 5 5 3 2 2 3 4 2 3 4 4 5 5 7 7 6 4 5 7 6 7 6 5 6 5 4 4
19 5 2 15 10 15 16 6 7 8 12 15 8 4 4 5 6 6 5 4 2 5 8 8 7 6 6 5 5 2 3 4 3 2 1 4 3 0 3 4 3 -0 3 2 6 13 -2 6 35 22 3 5 4 -0 1 3 0 1 7 9 5 4 6 3 2 2 3 4 2 4 4 4 5 5 7 6 6 6 6 7 6 6 6 5 6 5 4 3
11 11 6 7 5 14 15 10 9 -2 -1 11 10 5 5 4 5 5 6 5 3 4 7 8 7 6 6 5 6 4 3 4 2 3 1 2 5 2 4 6 5 -1 0 4 3 9 6 1 22 34 15 2 6 -0 -4 3 1 1 6 7 6 3 5 4 2 2 3 4 2 3 4 3 4 6 6 6 6 7 5 6 7 7 6 5 5 4 3 3
4 7 8 7 5 10 12 10 13 7 -0 4 8 9 7 5 6 4 5 7 3 4 6 7 7 6 7 5 6 5 4 6 5 5 3 2 6 4 3 8 8 2 0 3 3 5 6 1 9 36 34 6 5 3 -8 -3 1 7 10 5 6 4 5 5 2 3 2 3 2 1 4 3 3 6 6 6 6 5 6 7 7 7 6 4 4 4 4 3
0 10 10 9 10 4 7 18 21 14 5 5 7 10 11 6 6 6 4 7 4 4 7 7 8 6 7 6 5 7 4 5 7 7 5 2 6 5 2 9 11 6 3 3 5 4 3 1 -1 24 42 16 3 4 -4 -7 -2 15 17 5 6 4 4 6 2 3 3 3 3 1 3 3 3 6 6 5 5 6 8 7 5 7 5 3 4 3 3 4
-2 11 11 4 12 2 -6 10 22 16 6 8 5 1 12 12 6 7 6 7 5 5 7 6 8 7 6 7 6 6 6 5 5 8 8 4 6 7 1 4 8 5 5 5 6 6 4 5 5 15 33 29 9 2 4 -4 -6 17 18 3 6 4 2 6 3 2 3 3 4 2 2 3 4 6 7 5 5 6 8 7 5 6 6 2 3 2 2 4
5 3 9 -1 4 5 -2 0 10 18 9 9 13 0 2 12 9 7 6 8 7 4 6 6 7 7 5 6 7 7 8 7 5 7 9 6 7 9 4 3 7 6 5 7 7 8 6 5 13 13 22 38 20 0 9 0 -10 12 17 3 4 5 3 4 3 3 3 4 4 3 3 3 4 5 6 5 4 7 8 6 4 4 5 3 2 2 3 4
14 2 11 9 1 -2 5 10 4 14 18 9 17 13 4 11 13 10 7 7 9 5 5 9 8 8 9 8 8 9 10 11 9 7 7 7 7 9 6 4 12 11 3 6 6 7 6 1 12 12 16 42 26 -1 8 -0 -10 9 14 5 4 4 4 3 4 4 2 4 3 3 4 3 4 5 5 4 4 7 6 5 5 4 4 3 2 2 4 4
24 13 12 16 16 2 -3 14 8 3 15 10 9 13 9 14 17 13 10 7 8 7 5 9 9 7 8 7 6 8 10 11 9 6 5 6 5 6 5 -1 5 11 5 5 3 7 10 2 9 9 12 39 29 6 10 -2 -7 13 13 5 6 5 3 4 4 4 3 4 4 3 4 4 4 5 5 4 5 6 5 5 6 4 2 3 4 3 3 3
24 23 10 4 20 17 -7 4 14 2 5 7 5 6 2 9 18 13 10 9 7 8 7 7 9 7 5 7 10 8 6 7 6 6 6 7 5 6 7 -2 -2 6 6 9 6 8 12 5 8 7 10 35 32 15 17 8 2 16 16 6 8 8 2 4 5 4 3 3 5 3 3 4 4 5 5 3 6 6 4 6 5 3 2 2 4 3 2 2
9 25 16 -1 9 17 -1 -1 13 12 12 8 6 11 3 -0 12 13 8 10 7 5 7 6 7 6 6 9 10 6 3 4 7 8 7 8 8 7 9 3 2 7 3 4 3 2 5 2 4 5 7 26 35 24 18 15 11 11 12 7 10 11 3 4 6 3 2 2 4 3 1 2 3 4 4 3 5 6 4 6 6 3 4 3 3 3 1 1
-10 14 19 7 6 7 -1 3 6 7 14 11 7 15 14 3 7 15 12 8 8 8 6 6 8 6 8 9 6 5 1 2 7 11 10 8 8 7 8 5 2 5 1 -3 -6 -8 -5 -5 -1 4 2 4 20 33 24 15 13 9 5 6 11 13 6 4 6 3 2 2 3 3 1 0 3 4 3 4 5 5 3 5 7 4 4 4 3 2 0 0
-20 -5 14 12 10 6 -4 1 7 4 4 6 10 10 8 8 8 10 14 9 4 9 9 5 4 3 8 7 3 5 3 3 3 5 8 8 8 6 5 5 2 3 5 3 -0 -5 -7 -5 -2 4 6 -1 0 23 35 22 11 10 7 5 12 16 8 4 5 4 2 3 3 2 2 1 2 5 3 4 5 5 3 3 5 5 5 5 3 2 1 -0
-27 -21 7 15 15 13 1 -0 8 12 2 -1 14 12 -1 3 12 12 14 16 3 2 15 16 12 9 10 7 1 5 8 7 5 4 6 5 7 8 6 6 3 2 7 7 8 6 2 2 4 3 8 12 2 5 32 38 15 8 10 6 13 18 8 4 5 5 4 4 5 2 1 1 1 4 4 2 4 5 4 2 3 4 4 5 4 3 1 0
-22 -23 -5 12 23 17 6 6 9 13 1 -9 6 15 9 4 9 13 5 8 8 4 9 9 10 7 2 5 5 8 9 7 7 7 8 7 8 10 8 7 5 3 8 10 10 10 8 6 8 7 3 12 15 3 19 43 24 7 11 6 12 20 8 4 5 4 6 4 5 4 2 2 2 4 4 2 3 5 4 3 2 2 3 4 4 3 2 1
-8 -12 -16 -1 26 17 2 6 11 16 -2 -11 15 24 26 26 16 17 9 7 11 0 -6 -7 -3 1 -1 5 12 12 10 7 4 1 6 10 11 9 6 6 6 4 6 10 10 9 8 6 5 9 8 11 24 17 10 31 30 12 12 7 12 22 9 3 6 3 6 6 4 5 3 2 2 3 5 3 2 4 4 3 2 2 2 2 3 2 2 1
0 -4 -15 -10 20 17 1 2 6 19 -4 -18 27 29 7 13 3 -10 -9 2 14 2 -4 0 2 12 16 12 12 11 7 5 4 3 5 8 9 12 11 7 5 1 3 8 11 10 7 6 5 6 12 11 17 22 9 21 35 17 8 9 10 18 9 2 7 5 5 7 5 5 4 2 1 1 4 5 4 3 2 3 2 2 2 2 3 2 2 1
9 2 -9 -18 11 18 1 5 -1 6 10 -12 12 23 -11 -11 -3 -9 -14 -9 8 7 0 1 -1 11 21 14 10 6 2 4 10 13 8 2 4 10 11 9 6 5 10 12 9 9 5 3 3 0 6 7 9 18 9 13 37 24 6 9 9 11 10 1 3 5 5 7 6 5 5 3 1 0 2 5 5 2 1 3 3 3 2 1 2 2 3 3
15 5 -4 -25 3 21 -7 7 3 -18 12 10 1 20 6 -3 18 36 31 11 7 6 1 -1 -2 6 14 13 12 8 4 3 7 13 7 -2 -2 1 3 7 8 8 11 9 5 7 7 6 10 9 8 9 8 13 8 5 30 35 13 7 9 10 12 5 1 4 3 4 6 5 5 4 1 0 2 4 5 3 1 2 3 4 3 2 2 3 3 3
19 5 4 -20 -9 24 -5 -2 11 -17 7 19 3 22 14 -4 12 25 30 27 21 14 8 3 -3 0 8 8 7 8 10 5 2 7 5 0 -0 -0 2 5 5 6 6 6 6 8 10 12 17 19 17 17 12 12 12 3 17 39 27 9 11 13 12 8 3 4 4 3 4 4 5 4 1 0 2 4 4 3 2 2 3 4 4 4 4 4 4 4
23 7 11 -6 -20 16 4 -17 -1 -4 6 8 -1 15 7 -6 8 12 14 23 22 16 10 4 -5 -5 5 6 1 1 9 10 5 6 6 4 5 4 4 4 4 7 8 6 9 10 5 6 7 7 11 16 15 11 13 7 9 32 37 19 11 14 13 8 5 5 4 3 4 5 5 3 2 1 2 4 4 3 4 3 3 4 4 4 4 5 6 7
22 12 12 4 -17 -4 -6 -20 -6 -0 3 10 5 8 5 -1 6 13 14 13 13 15 12 4 -3 -5 -2 2 3 2 6 10 6 7 8 4 6 10 7 7 5 7 10 7 9 10 4 6 8 6 8 11 14 13 11 11 10 21 39 34 18 14 14 7 4 6 6 4 4 6 8 4 2 2 1 4 5 3 3 3 3 4 4 4 5 6 6 6
17 17 12 11 -5 -18 -19 -12 2 -0 -4 10 18 15 15 9 0 8 15 7 6 12 12 7 5 4 -1 0 8 7 2 5 6 5 6 3 4 12 12 11 9 6 9 10 10 8 0 2 5 3 4 4 8 12 11 12 11 14 33 43 29 18 14 6 3 9 8 7 5 6 10 6 2 3 2 3 6 5 3 4 4 3 4 5 6 6 5 5
15 17 12 17 7 -9 -0 7 3 2 -3 2 15 14 15 15 2 5 13 5 4 9 10 9 7 6 2 -1 4 7 2 3 6 3 3 0 -3 1 4 7 8 6 6 5 3 3 -1 1 2 0 2 2 2 7 11 12 11 12 27 42 35 21 13 4 2 11 12 7 6 8 11 8 2 2 4 4 6 7 4 3 4 4 4 5 6 6 6 6
15 18 9 19 19 -0 -2 2 7 10 -7 -5 19 14 10 24 17 10 12 2 0 10 10 6 5 5 5 -1 -4 1 2 2 5 5 6 9 10 8 6 7 5 2 9 10 3 3 6 8 9 7 6 6 8 11 11 9 10 15 26 37 33 18 11 2 -2 9 14 8 6 7 9 11 4 -2 4 7 4 6 7 2 3 5 5 5 4 5 5 5
13 18 9 14 24 12 -11 -11 12 14 -17 -15 15 11 7 36 32 6 6 5 -1 7 9 5 5 5 4 2 -1 -1 1 1 2 3 4 8 15 14 10 13 8 -1 6 10 3 3 7 8 7 6 6 7 8 9 10 10 11 15 24 33 31 18 9 3 -2 4 13 11 7 6 7 12 8 -5 -0 8 4 4 7 4 2 3 4 5 5 5 4 3
11 16 15 12 18 21 2 -9 -3 -9 -22 -18 0 6 6 32 37 2 0 17 8 6 10 6 6 4 2 3 4 4 2 2 2 2 4 -1 -4 1 4 7 5 3 7 7 2 1 2 3 2 2 6 8 6 4 6 9 10 15 21 26 29 22 10 4 -1 -1 11 14 4 3 7 11 12 -0 -4 5 6 3 6 6 5 3 4 4 3 5 5 5
9 13 16 13 15 15 3 -0 -4 -14 -9 -15 -15 7 6 15 36 12 3 20 9 1 9 8 6 4 2 1 3 6 4 4 4 -0 4 2 -10 -10 -2 -3 -8 -5 1 2 0 -0 1 1 -0 2 7 8 7 6 6 6 8 14 20 22 24 22 14 11 3 -5 5 12 1 2 9 9 10 4 -3 2 6 4 5 8 8 4 5 6 4 5 5 5
8 13 15 15 20 22 14 12 -1 -14 -3 -16 -31 -7 -1 5 35 23 6 14 5 2 8 7 9 5 2 4 2 4 5 6 8 2 1 12 9 3 5 5 2 1 2 2 0 0 4 6 6 8 10 8 5 5 7 5 5 10 16 22 21 16 14 13 8 -0 1 5 1 2 10 11 8 2 -1 2 3 5 5 4 8 7 5 7 7 7 5 5
6 12 18 20 20 23 23 13 -5 -15 -6 -6 -17 -10 -9 1 33 29 9 10 5 4 6 4 9 7 2 5 1 2 5 -2 2 12 18 26 22 15 17 15 10 11 12 14 12 8 7 7 7 7 6 7 6 5 6 6 9 12 15 21 20 12 12 12 10 11 7 3 1 2 9 15 9 2 2 2 -0 4 6 4 5 6 5 6 8 10 8 6
6 9 11 18 22 26 26 11 3 3 -1 1 1 -4 -12 -2 34 38 10 2 6 9 8 2 7 7 0 4 2 1 4 -7 -17 -7 12 23 11 -1 4 6 1 2 5 8 10 11 11 7 9 12 10 8 8 7 9 10 11 15 17 22 19 13 18 17 13 18 16 7 2 2 9 12 6 0 3 6 1 -1 3 7 7 7 7 6 6 8 10 8
6 8 8 11 12 21 31 18 11 9 -0 1 3 -2 -6 -2 31 47 19 -2 3 10 7 -1 6 10 2 3 3 0 3 1 -11 -23 -18 1 9 6 8 9 5 3 2 1 1 4 8 6 8 15 13 12 12 9 9 10 8 11 15 18 17 17 23 19 12 15 16 9 3 2 6 8 4 -3 -3 5 8 1 -0 2 6 10 10 10 9 8 8 9
8 4 6 11 4 3 15 17 17 16 9 9 2 -3 -2 -4 16 43 32 5 0 10 9 -0 3 9 6 4 4 2 1 1 3 -3 -12 -9 4 11 11 8 5 4 4 3 2 3 4 5 7 9 7 7 11 10 10 11 8 8 11 11 17 23 20 13 11 12 11 8 6 6 4 5 5 -0 -5 -3 3 6 4 -0 1 6 9 11 13 11 8 7
9 1 -3 1 6 7 6 6 12 15 12 14 11 4 -1 -8 2 26 34 15 3 12 14 2 -1 2 5 6 5 6 2 -2 1 5 4 2 6 8 1 -1 3 5 7 5 6 9 8 9 10 8 6 3 4 8 10 12 11 10 11 10 19 24 18 15 15 13 13 10 12 16 11 7 5 2 -0 -4 -5 2 6 4 3 4 7 8 7 9 10 8
1 0 -2 -4 -0 7 11 9 11 13 11 9 15 16 -4 -20 -14 7 30 26 6 8 10 3 2 -0 -0 4 7 9 3 -0 3 0 -6 -6 9 20 7 -2 3 4 5 5 6 9 7 8 8 4 5 6 5 6 6 9 10 10 10 10 15 18 17 22 19 13 16 13 13 21 19 12 7 4 3 0 -3 -1 4 6 6 5 7 8 7 6 8 9
6 0 -2 2 1 1 9 11 11 22 25 8 5 13 -2 -15 -12 -1 27 32 9 4 4 0 3 -0 -1 3 7 12 5 -2 3 4 -6 -18 -8 14 9 -2 4 5 4 4 4 7 5 6 9 5 5 7 5 5 5 7 7 7 9 10 11 10 11 18 19 16 18 15 13 20 23 21 17 9 3 1 -1 0 3 5 5 5 8 10 11 10 7 6
15 8 -5 0 5 4 10 16 14 13 14 9 10 14 3 -1 -2 -2 26 35 12 4 1 -1 7 4 2 4 3 8 7 1 1 4 5 -9 -14 4 11 5 7 6 5 5 4 5 2 2 6 6 6 6 4 4 6 7 6 6 8 9 10 12 11 12 13 15 17 16 15 17 22 30 29 20 9 0 -2 -1 3 7 6 4 5 5 7 11 12 11
21 22 4 -1 4 8 11 17 18 3 -5 8 20 17 5 1 -4 0 29 36 16 8 1 -2 8 6 2 6 3 1 0 1 2 3 10 5 -7 5 18 14 9 6 4 5 5 4 2 2 3 3 5 6 6 7 8 9 8 6 7 7 6 9 12 13 15 17 16 15 16 14 23 35 36 29 22 10 2 -1 0 5 8 7 6 4 2 3 8 13
21 24 14 -0 -5 8 12 7 9 4 -5 2 15 19 12 1 -6 -0 22 30 20 16 7 -2 3 2 1 6 6 3 1 1 3 3 7 5 -1 9 20 12 3 3 7 9 10 10 8 7 6 4 5 5 5 6 8 9 8 7 7 6 3 5 9 10 11 12 13 17 18 15 23 36 33 30 30 21 10 5 3 3 5 8 10 10 8 3 1 3
7 18 26 11 -6 2 11 6 7 10 6 7 14 23 24 13 -0 -5 7 23 23 18 13 7 5 4 4 4 5 5 3 4 6 4 4 6 9 13 12 6 1 3 6 6 6 8 5 3 4 4 5 6 6 7 7 7 7 6 6 5 6 6 3 4 6 6 9 15 16 13 17 24 25 29 31 26 16 9 6 4 4 6 8 9 11 10 7 5
0 15 28 32 23 10 5 6 4 0 7 15 13 10 18 21 9 -4 7 27 25 13 14 12 6 7 5 1 3 4 3 5 5 3 5 10 16 14 6 3 4 3 4 3 5 10 10 5 2 2 3 5 6 5 3 4 4 3 5 5 6 5 3 5 5 3 8 11 10 14 12 8 18 31 31 29 28 20 12 8 5 5 5 5 8 8 8 9
0 15 18 27 33 12 -2 3 1 -5 1 10 7 0 7 15 6 -1 10 28 27 13 9 9 4 6 7 3 2 3 7 9 5 8 16 10 5 8 9 8 6 6 8 7 9 15 17 16 9 3 3 4 5 4 6 12 14 10 9 8 7 9 9 7 4 8 18 15 11 16 10 2 13 23 17 19 27 26 22 19 13 12 12 11 11 10 8 8
-3 14 10 6 13 5 -4 -3 2 9 10 3 1 -0 1 6 6 4 5 18 30 23 10 8 6 4 7 7 3 -0 4 7 4 10 17 8 1 7 11 11 9 10 10 7 6 7 9 15 15 9 8 7 5 8 12 17 19 14 12 13 13 11 8 6 10 14 13 10 13 14 6 5 14 12 5 8 13 15 19 20 17 16 16 13 12 10 11 12
2 10 1 -7 1 2 -2 -4 -2 8 12 6 5 7 3 5 10 11 5 7 22 24 13 9 9 5 6 5 1 -1 0 3 6 10 7 0 4 10 11 10 9 10 12 10 10 7 4 8 9 9 11 7 4 6 7 8 12 8 6 10 12 10 9 11 11 3 -3 4 12 8 4 9 11 7 7 10 10 11 12 11 11 11 11 11 10 9 10 11
17 17 4 -2 1 -6 -12 -6 -3 -1 5 7 13 18 12 5 5 8 8 5 10 16 14 10 7 6 9 8 3 1 -0 -1 3 9 6 -1 0 5 7 8 7 7 10 9 8 7 6 7 7 7 9 8 6 7 3 5 9 2 -2 6 11 11 13 11 5 -2 -2 4 7 5 8 11 5 5 12 11 9 11 10 8 8 7 6 7 7 6 7 6
1 7 2 1 13 13 4 5 6 4 4 -0 3 13 12 4 1 1 4 5 10 17 16 11 6 4 7 8 5 4 3 -4 -9 -5 2 2 0 1 2 3 3 5 10 10 9 8 8 9 7 4 4 7 8 6 4 7 8 2 1 8 9 6 6 5 4 5 0 -1 2 1 4 11 11 8 7 2 2 6 6 7 9 7 7 7 5 5 5 4
6 2 -4 -7 3 14 12 8 4 2 3 -1 -1 8 6 -1 -2 -1 1 7 16 22 19 13 10 8 6 5 4 5 7 3 -5 -3 3 5 3 1 1 3 3 6 11 13 11 10 10 10 8 6 7 9 7 5 6 6 7 8 7 4 -1 -2 2 5 9 10 1 -3 2 3 5 16 15 3 -3 -1 3 7 8 9 10 8 8 7 6 7 7 8
16 2 -4 -7 -10 -9 -6 -2 -4 -7 -1 1 -0 2 1 -1 0 2 2 7 14 19 14 10 12 12 10 8 6 6 10 9 8 10 11 13 14 11 11 13 9 8 14 15 11 10 9 8 7 6 9 9 6 6 8 6 10 13 6 -1 0 4 7 9 9 10 3 -4 1 12 13 5 -4 -5 4 11 12 11 10 11 12 11 9 8 7 6 7 8
5 -2 0 8 5 -4 -10 -8 -3 2 7 6 -0 -3 -2 -1 1 2 3 9 18 18 12 11 14 9 5 8 9 8 11 12 13 15 13 12 17 19 21 23 18 12 13 15 15 14 11 10 8 6 9 11 5 3 6 5 8 9 2 1 9 10 9 10 8 8 9 6 11 17 5 -10 -3 10 12 10 9 10 10 10 12 12 12 13 12 10 9 9
Height
5669 5675 5680 5687 5694 5698 5703 5709 5713 5718 5723 5728 5733 5738 5742 5746 5751 5755 5760 5763 5768 5772 5776 5780 5784 5787 5790 5792 5794 5797 5799 5801 5804 5807 5810 5814 5817 5818 5821 5824 5828 5831 5834 5835 5837 5839 5842 5844 5846 5848 5850 5853 5855 5857 5859 5860 5863 5865 5867 5869 5870 5872 5874 5876 5878 5880 5882 5883 5884 5886 5887 5888 5889 5890 5891 5893 5894 5895 5895 5895 5895 5896 5897 5898 5899 5899 5900 5901
5663 5669 5674 5682 5689 5693 5700 5705 5709 5714 5718 5724 5728 5734 5738 5742 5747 5751 5756 5759 5764 5768 5772 5776 5780 5784 5786 5788 5790 5793 5796 5798 5800 5804 5808 5812 5814 5815 5817 5821 5824 5829 5832 5833 5835 5837 5840 5841 5843 5845 5847 5850 5852 5854 5856 5858 5860 5863 5865 5868 5869 5870 5872 5874 5875 5878 5881 5881 5882 5884 5886 5887 5888 5889 5891 5892 5893 5894 5894 5894 5895 5896 5897 5898 5898 5899 5900 5901
5657 5664 5669 5676 5682 5688 5697 5702 5705 5710 5714 5719 5724 5729 5734 5738 5743 5747 5752 5756 5760 5764 5768 5773 5776 5780 5783 5785 5787 5789 5792 5794 5797 5802 5806 5808 5810 5811 5813 5816 5821 5826 5829 5830 5832 5834 5837 5838 5840 5842 5844 5846 5849 5852 5854 5856 5858 5861 5863 5866 5867 5868 5870 5871 5874 5877 5879 5879 5881 5883 5885 5886 5887 5888 5890 5891 5892 5894 5894 5894 5894 5895 5896 5897 5898 5899 5899 5900
5651 5659 5663 5668 5674 5682 5693 5697 5700 5706 5710 5714 5719 5724 5730 5734 5739 5743 5748 5752 5756 5760 5765 5769 5772 5776 5778 5781 5783 5786 5789 5791 5796 5801 5802 5804 5806 5807 5809 5813 5818 5823 5826 5828 5829 5832 5834 5835 5837 5839 5841 5843 5846 5849 5851 5853 5856 5858 5862 5865 5865 5865 5867 5870 5872 5875 5877 5878 5879 5881 5883 5884 5885 5887 5889 5890 5891 5893 5893 5893 5894 5895 5896 5897 5898 5898 5899 5900
5647 5652 5656 5663 5670 5677 5687 5692 5696 5701 5705 5710 5714 5720 5725 5729 5734 5739 5744 5748 5752 5756 5761 5765 5768 5771 5774 5777 5780 5783 5785 5789 5794 5796 5797 5800 5802 5803 5806 5810 5815 5820 5823 5825 5826 5828 5831 5832 5834 5836 5837 5840 5843 5846 5849 5851 5853 5855 5860 5863 5862 5863 5866 5868 5870 5873 5875 5877 5878 5880 5881 5882 5884 5885 5887 5889 5890 5891 5892 5892 5893 5894 5895 5896 5897 5898 5899 5900
5642 5646 5651 5659 5665 5672 5680 5686 5691 5696 5701 5705 5709 5715 5720 5725 5730 5735 5740 5744 5748 5752 5757 5761 5764 5767 5770 5773 5776 5779 5782 5786 5790 5791 5793 5797 5799 5801 5804 5808 5812 5817 5821 5823 5824 5825 5828 5829 5831 5833 5835 5837 5840 5843 5846 5847 5849 5853 5858 5860 5859 5860 5864 5866 5868 5871 5873 5874 5876 5877 5878 5880 5882 5884 5886 5888 5888 5889 5890 5892 5893 5893 5894 5895 5896 5898 5899 5900
5637 5641 5647 5654 5661 5668 5676 5681 5686 5691 5695 5700 5705 5711 5716 5721 5726 5730 5736 5740 5744 5748 5753 5757 5760 5764 5767 5770 5773 5776 5780 5783 5786 5788 5791 5794 5796 5798 5801 5805 5810 5813 5818 5820 5821 5822 5824 5826 5828 5830 5832 5834 5837 5841 5843 5844 5847 5851 5855 5856 5856 5858 5862 5864 5867 5869 5870 5872 5873 5874 5876 5879 5881 5883 5885 5886 5886 5888 5889 5890 5891 5892 5893 5894 5895 5896 5898 5899
5632 5637 5642 5650 5657 5664 5671 5676 5681 5685 5691 5697 5701 5706 5712 5717 5722 5727 5731 5736 5741 5744 5748 5752 5756 5760 5763 5766 5769 5773 5777 5779 5782 5784 5787 5790 5793 5796 5798 5803 5806 5810 5814 5816 5818 5819 5821 5823 5826 5827 5829 5831 5834 5837 5839 5841 5844 5849 5852 5853 5853 5856 5860 5862 5865 5867 5868 5870 5872 5873 5875 5877 5879 5882 5884 5884 5885 5886 5888 5889 5891 5891 5893 5894 5894 5895 5897 5898
5626 5632 5638 5645 5651 5659 5666 5671 5677 5681 5687 5693 5698 5703 5708 5713 5718 5722 5727 5732 5736 5741 5744 5748 5752 5756 5759 5762 5766 5771 5774 5776 5779 5782 5785 5789 5791 5793 5796 5799 5802 5806 5809 5812 5814 5816 5818 5821 5823 5824 5826 5828 5831 5834 5836 5838 5842 5846 5848 5849 5850 5853 5857 5859 5862 5864 5866 5868 5870 5872 5873 5875 5878 5880 5882 5883 5884 5885 5886 5888 5890 5891 5892 5893 5894 5895 5895 5897
5619 5627 5633 5639 5646 5653 5662 5668 5673 5679 5683 5688 5693 5699 5703 5708 5713 5718 5723 5727 5732 5736 5740 5744 5748 5752 5754 5758 5762 5767 5770 5773 5775 5779 5782 5786 5788 5791 5792 5795 5798 5802 5806 5809 5811 5813 5815 5818 5819 5821 5822 5823 5827 5831 5832 5835 5839 5843 5844 5845 5847 5850 5854 5856 5859 5861 5863 5865 5867 5869 5871 5873 5875 5878 5881 5882 5882 5883 5885 5886 5888 5890 5891 5892 5893 5894 5895 5896
5613 5621 5628 5634 5641 5649 5658 5665 5670 5675 5681 5687 5690 5694 5699 5703 5708 5714 5718 5723 5727 5732 5736 5741 5744 5748 5751 5755 5760 5764 5767 5769 5772 5775 5778 5782 5785 5787 5789 5791 5794 5799 5803 5806 5808 5809 5811 5815 5817 5818 5818 5820 5825 5827 5829 5834 5837 5839 5840 5841 5843 5846 5850 5854 5857 5859 5860 5862 5864 5866 5868 5870 5873 5877 5879 5879 5880 5881 5883 5885 5886 5888 5889 5891 5892 5893 5894 5895
5606 5615 5622 5628 5636 5646 5654 5660 5666 5671 5677 5684 5686 5690 5695 5698 5704 5709 5713 5719 5723 5728 5733 5737 5741 5745 5748 5752 5757 5762 5764 5765 5767 5771 5774 5778 5781 5783 5786 5788 5791 5795 5799 5802 5805 5807 5808 5811 5814 5815 5816 5819 5822 5823 5826 5831 5832 5834 5837 5838 5840 5843 5846 5850 5854 5856 5857 5859 5861 5863 5865 5868 5873 5875 5875 5877 5878 5880 5882 5883 5885 5886 5888 5889 5890 5892 5893 5894
5599 5609 5616 5623 5631 5640 5649 5655 5661 5666 5672 5678 5682 5687 5691 5695 5700 5705 5710 5715 5719 5724 5729 5733 5738 5742 5745 5750 5755 5758 5760 5761 5764 5768 5771 5775 5777 5780 5783 5785 5788 5792 5795 5798 5802 5805 5806 5808 5810 5812 5814 5816 5818 5820 5823 5826 5827 5830 5833 5835 5837 5839 5843 5847 5850 5853 5855 5856 5858 5860 5862 5867 5872 5872 5873 5875 5877 5879 5880 5882 5883 5884 5886 5888 5889 5890 5891 5892
5591 5602 5611 5618 5626 5634 5643 5651 5658 5663 5669 5674 5678 5683 5687 5691 5696 5702 5708 5712 5716 5721 5725 5730 5734 5737 5742 5748 5751 5754 5756 5757 5761 5765 5768 5771 5774 5776 5779 5782 5785 5788 5791 5794 5799 5802 5804 5806 5808 5810 5812 5813 5815 5817 5819 5820 5823 5826 5829 5832 5834 5837 5840 5844 5846 5849 5851 5853 5855 5857 5860 5866 5868 5867 5870 5874 5875 5877 5879 5880 5882 5883 5885 5886 5887 5889 5890 5891
5585 5595 5605 5614 5621 5629 5638 5648 5655 5660 5666 5670 5674 5678 5683 5687 5692 5698 5704 5709 5713 5718 5722 5727 5730 5734 5740 5743 5746 5750 5751 5754 5759 5762 5765 5768 5770 5773 5776 5779 5781 5784 5787 5789 5794 5798 5801 5804 5805 5807 5809 5810 5811 5813 5815 5817 5819 5822 5825 5828 5831 5834 5838 5841 5843 5846 5848 5850 5852 5854 5858 5863 5863 5864 5868 5872 5874 5875 5877 5878 5880 5881 5883 5884 5885 5887 5888 5889
5578 5589 5600 5609 5616 5624 5634 5643 5649 5655 5662 5667 5671 5675 5679 5682 5687 5693 5699 5706 5711 5714 5718 5722 5725 5731 5736 5739 5743 5746 5748 5753 5756 5759 5763 5764 5766 5769 5772 5775 5778 5780 5783 5786 5790 5793 5797 5801 5802 5803 5805 5807 5809 5811 5812 5813 5816 5819 5823 5826 5828 5831 5834 5837 5840 5843 5845 5846 5848 5851 5856 5860 5860 5862 5866 5869 5872 5874 5875 5877 5878 5879 5880 5882 5883 5885 5886 5887
5571 5583 5595 5603 5611 5619 5630 5638 5644 5651 5658 5664 5668 5670 5673 5677 5683 5688 5693 5701 5706 5710 5714 5718 5723 5728 5732 5736 5740 5744 5748 5751 5753 5757 5761 5760 5763 5767 5769 5772 5774 5776 5780 5783 5787 5790 5793 5797 5799 5801 5802 5804 5807 5808 5809 5811 5814 5817 5820 5823 5825 5828 5831 5833 5837 5839 5841 5843 5846 5849 5853 5857 5858 5860 5863 5866 5868 5871 5873 5875 5876 5877 5878 5879 5881 5883 5884 5886
5565 5578 5589 5598 5606 5615 5625 5633 5640 5646 5653 5661 5663 5664 5667 5671 5677 5682 5686 5693 5700 5705 5707 5711 5717 5722 5727 5733 5739 5742 5745 5748 5751 5755 5758 5758 5761 5764 5766 5769 5771 5773 5777 5780 5784 5787 5790 5793 5795 5797 5799 5801 5803 5805 5807 5810 5813 5815 5817 5819 5821 5824 5827 5830 5833 5836 5838 5841 5843 5846 5851 5854 5855 5857 5859 5862 5865 5868 5870 5871 5872 5874 5876 5877 5879 5881 5882 5883
5559 5571 5583 5592 5601 5610 5620 5628 5634 5640 5648 5655 5658 5657 5658 5662 5668 5674 5679 5686 5693 5698 5701 5707 5713 5718 5725 5732 5736 5738 5740 5744 5748 5752 5757 5756 5757 5761 5763 5765 5768 5770 5773 5777 5781 5784 5787 5790 5792 5795 5797 5798 5800 5802 5805 5808 5809 5810 5812 5814 5816 5819 5823 5827 5830 5832 5835 5837 5840 5844 5848 5852 5852 5853 5856 5858 5861 5864 5865 5866 5868 5871 5873 5875 5877 5878 5880 5881
5554 5565 5578 5587 5595 5605 5615 5622 5629 5635 5640 5645 5645 5642 5644 5649 5654 5660 5672 5685 5693 5700 5706 5712 5716 5720 5726 5728 5730 5733 5735 5741 5744 5749 5754 5752 5752 5756 5758 5760 5763 5766 5770 5774 5777 5780 5784 5787 5790 5792 5793 5794 5795 5798 5800 5802 5802 5802 5804 5808 5811 5814 5819 5824 5827 5829 5831 5833 5837 5841 5845 5848 5849 5849 5851 5854 5856 5859 5860 5862 5865 5868 5870 5872 5874 5875 5877 5878
5550 5560 5571 5581 5590 5600 5609 5617 5624 5629 5632 5636 5637 5635 5640 5647 5652 5662 5675 5682 5689 5698 5705 5710 5713 5717 5723 5725 5728 5729 5733 5739 5742 5747 5751 5748 5747 5750 5753 5756 5760 5764 5768 5771 5773 5776 5779 5785 5788 5789 5788 5789 5791 5793 5795 5796 5795 5795 5798 5803 5806 5810 5815 5819 5822 5825 5827 5829 5834 5837 5840 5844 5845 5846 5847 5849 5852 5854 5857 5860 5863 5865 5867 5869 5870 5872 5874 5875
5545 5553 5565 5576 5585 5594 5603 5611 5619 5624 5626 5629 5634 5638 5644 5651 5661 5672 5678 5679 5683 5690 5694 5698 5702 5708 5715 5719 5722 5724 5729 5735 5739 5743 5745 5743 5744 5748 5750 5753 5757 5762 5765 5767 5770 5773 5778 5783 5784 5783 5784 5785 5787 5789 5790 5791 5791 5793 5796 5799 5802 5807 5811 5815 5818 5821 5822 5825 5829 5832 5836 5840 5842 5842 5844 5846 5848 5852 5855 5858 5860 5862 5863 5865 5868 5869 5870 5871
5539 5547 5557 5568 5579 5588 5598 5607 5614 5619 5621 5624 5631 5637 5643 5652 5661 5669 5673 5677 5682 5684 5685 5689 5694 5700 5706 5711 5715 5719 5724 5729 5734 5738 5740 5741 5744 5747 5749 5752 5755 5758 5760 5764 5768 5771 5776 5777 5776 5778 5780 5782 5783 5785 5787 5788 5790 5793 5794 5797 5800 5804 5807 5812 5816 5818 5819 5821 5825 5828 5831 5836 5838 5839 5840 5843 5846 5850 5852 5854 5856 5858 5860 5863 5865 5866 5866 5868
5534 5542 5550 5562 5573 5582 5592 5601 5606 5611 5617 5623 5629 5634 5641 5650 5656 5662 5669 5674 5678 5682 5685 5690 5694 5698 5703 5709 5713 5716 5721 5725 5730 5733 5736 5739 5742 5744 5747 5749 5751 5754 5758 5762 5764 5768 5771 5769 5770 5775 5776 5778 5779 5781 5784 5786 5789 5791 5793 5795 5798 5800 5803 5808 5811 5814 5816 5817 5821 5824 5826 5831 5835 5835 5838 5840 5842 5847 5849 5850 5853 5855 5857 5860 5861 5862 5864 5866
5529 5537 5545 5556 5565 5575 5586 5591 5595 5604 5613 5618 5623 5630 5637 5644 5651 5659 5665 5668 5672 5678 5682 5687 5692 5696 5702 5708 5711 5715 5719 5723 5726 5729 5732 5736 5739 5743 5745 5746 5748 5752 5756 5758 5760 5764 5766 5765 5769 5772 5773 5775 5776 5778 5781 5783 5786 5788 5790 5794 5795 5796 5799 5802 5806 5809 5811 5813 5817 5820 5821 5827 5832 5833 5835 5838 5839 5843 5846 5846 5849 5852 5854 5856 5857 5860 5862 5863
5524 5532 5541 5549 5559 5569 5574 5578 5589 5600 5604 5609 5618 5627 5633 5639 5645 5652 5658 5661 5664 5669 5675 5682 5687 5692 5699 5704 5708 5713 5717 5719 5723 5726 5728 5731 5735 5739 5741 5743 5747 5751 5753 5754 5756 5760 5762 5763 5767 5769 5771 5772 5773 5775 5778 5780 5782 5785 5788 5791 5792 5793 5795 5798 5801 5804 5807 5809 5813 5816 5817 5823 5828 5830 5832 5833 5834 5839 5841 5842 5846 5849 5850 5853 5855 5857 5859 5860
5519 5527 5535 5543 5552 5558 5561 5573 5586 5590 5595 5606 5616 5623 5630 5636 5641 5646 5650 5652 5655 5662 5670 5677 5682 5688 5695 5699 5704 5709 5713 5717 5721 5723 5726 5728 5731 5734 5737 5740 5744 5746 5748 5750 5753 5758 5761 5762 5764 5766 5768 5770 5771 5773 5775 5777 5779 5782 5786 5787 5787 5789 5790 5793 5796 5799 5802 5806 5808 5811 5814 5817 5822 5826 5827 5828 5830 5834 5837 5839 5843 5845 5847 5849 5852 5853 5855 5856
5514 5523 5530 5537 5545 5554 5565 5576 5582 5587 5599 5610 5616 5622 5627 5632 5637 5641 5641 5640 5646 5656 5663 5671 5678 5684 5689 5693 5698 5704 5709 5715 5718 5720 5723 5726 5728 5732 5734 5737 5740 5742 5744 5747 5753 5758 5758 5759 5762 5763 5765 5768 5770 5771 5772 5774 5776 5779 5781 5782 5783 5784 5786 5788 5791 5794 5797 5800 5802 5807 5809 5810 5816 5822 5823 5824 5826 5829 5833 5836 5839 5841 5843 5845 5848 5849 5851 5852
5510 5518 5525 5533 5544 5557 5568 5575 5583 5594 5604 5609 5613 5619 5624 5629 5632 5634 5631 5630 5639 5651 5657 5664 5671 5677 5682 5687 5694 5700 5706 5711 5714 5718 5721 5722 5724 5727 5731 5734 5736 5737 5740 5744 5750 5752 5753 5756 5758 5760 5763 5766 5767 5768 5770 5771 5773 5776 5777 5778 5780 5780 5782 5784 5786 5789 5791 5793 5797 5802 5805 5805 5809 5818 5820 5819 5823 5826 5829 5832 5834 5836 5839 5841 5843 5845 5847 5848
5505 5514 5522 5531 5539 5547 5557 5567 5579 5590 5596 5601 5608 5614 5619 5622 5622 5621 5617 5619 5634 5646 5651 5658 5667 5673 5677 5681 5688 5696 5701 5706 5710 5713 5716 5719 5721 5723 5727 5730 5731 5733 5736 5740 5744 5746 5749 5753 5754 5757 5761 5762 5763 5764 5766 5768 5769 5772 5773 5775 5776 5777 5779 5781 5782 5786 5786 5788 5794 5798 5801 5801 5802 5811 5817 5817 5820 5823 5826 5828 5829 5832 5835 5837 5839 5841 5842 5844
5501 5510 5518 5525 5532 5540 5548 5556 5566 5576 5584 5592 5599 5606 5611 5612 5611 5608 5607 5618 5635 5642 5645 5654 5661 5666 5672 5679 5686 5692 5696 5701 5705 5707 5710 5715 5718 5719 5722 5725 5727 5730 5733 5737 5740 5743 5747 5749 5751 5755 5757 5758 5759 5760 5762 5764 5765 5768 5769 5771 5773 5773 5775 5777 5779 5781 5781 5785 5791 5794 5796 5796 5796 5805 5814 5815 5816 5820 5822 5824 5826 5828 5830 5833 5835 5837 5838 5839
5498 5507 5516 5523 5533 5542 5549 5558 5568 5575 5581 5587 5592 5597 5601 5601 5600 5599 5606 5621 5629 5632 5641 5651 5657 5664 5672 5680 5686 5690 5693 5696 5699 5702 5706 5710 5713 5715 5719 5721 5724 5727 5730 5735 5738 5740 5743 5745 5748 5751 5753 5754 5755 5756 5759 5760 5761 5763 5765 5767 5768 5769 5770 5772 5775 5777 5779 5783 5788 5791 5792 5792 5792 5800 5810 5813 5814 5816 5818 5820 5822 5824 5826 5828 5831 5833 5834 5835
5496 5505 5514 5522 5531 5540 5549 5561 5570 5573 5577 5582 5587 5590 5592 5591 5591 5597 5609 5618 5623 5632 5645 5651 5657 5665 5670 5674 5679 5685 5690 5694 5697 5700 5703 5706 5708 5711 5715 5718 5722 5725 5730 5734 5735 5737 5739 5741 5745 5747 5749 5750 5751 5753 5755 5757 5758 5759 5761 5763 5764 5765 5765 5768 5771 5774 5778 5782 5785 5788 5788 5787 5790 5795 5804 5810 5811 5813 5815 5816 5818 5821 5823 5825 5827 5828 5830 5831
5494 5502 5509 5518 5528 5537 5545 5552 5559 5566 5572 5575 5578 5581 5583 5585 5591 5601 5611 5617 5625 5636 5642 5646 5653 5659 5663 5669 5675 5680 5685 5689 5692 5696 5699 5701 5704 5708 5711 5715 5719 5723 5727 5730 5732 5735 5737 5740 5743 5745 5746 5747 5748 5750 5752 5755 5757 5758 5759 5761 5761 5763 5763 5766 5769 5772 5777 5781 5782 5784 5784 5785 5788 5792 5798 5805 5808 5809 5812 5813 5815 5818 5820 5821 5823 5824 5825 5826
5491 5499 5506 5514 5521 5528 5537 5545 5553 5561 5565 5568 5572 5573 5574 5581 5592 5602 5609 5616 5624 5629 5634 5642 5648 5652 5657 5664 5670 5675 5680 5684 5688 5690 5693 5698 5702 5707 5709 5713 5716 5719 5722 5725 5728 5732 5735 5738 5742 5743 5744 5745 5746 5748 5750 5752 5753 5754 5757 5757 5759 5761 5763 5764 5766 5770 5774 5776 5776 5779 5781 5784 5787 5788 5792 5799 5804 5806 5808 5810 5812 5814 5815 5817 5819 5820 5821 5822
5483 5491 5498 5505 5512 5520 5530 5540 5548 5555 5559 5564 5566 5566 5572 5584 5595 5603 5612 5619 5623 5624 5630 5636 5639 5645 5651 5656 5662 5668 5674 5681 5685 5686 5690 5696 5700 5704 5706 5709 5713 5716 5719 5723 5726 5728 5731 5734 5736 5738 5739 5741 5742 5744 5746 5747 5749 5750 5752 5753 5756 5759 5760 5761 5763 5765 5768 5769 5771 5775 5779 5782 5785 5785 5788 5795 5800 5802 5804 5806 5808 5810 5812 5814 5815 5816 5817 5817
5470 5479 5487 5496 5507 5517 5526 5535 5544 5550 5557 5560 5561 5566 5578 5590 5596 5603 5612 5618 5621 5623 5625 5627 5630 5638 5645 5650 5657 5663 5670 5677 5680 5683 5689 5693 5696 5701 5704 5707 5711 5715 5718 5722 5724 5727 5729 5731 5733 5734 5735 5737 5739 5740 5742 5744 5746 5747 5749 5751 5754 5755 5756 5758 5759 5760 5762 5764 5767 5772 5775 5778 5781 5782 5785 5791 5796 5799 5801 5802 5804 5806 5808 5809 5810 5811 5812 5813
5463 5475 5485 5494 5505 5515 5523 5533 5540 5548 5555 5557 5560 5569 5581 5587 5591 5597 5604 5611 5616 5617 5620 5624 5630 5637 5643 5649 5657 5663 5668 5672 5675 5681 5686 5690 5695 5701 5703 5705 5708 5711 5714 5718 5721 5724 5726 5727 5729 5731 5732 5734 5736 5737 5738 5740 5742 5744 5746 5749 5751 5751 5753 5755 5755 5756 5758 5760 5762 5767 5770 5773 5776 5779 5783 5787 5791 5795 5798 5799 5800 5802 5803 5805 5806 5808 5808 5809
5461 5473 5482 5492 5504 5512 5520 5529 5537 5544 5549 5550 5555 5565 5572 5578 5586 5594 5599 5605 5611 5614 5617 5623 5631 5636 5641 5648 5655 5660 5664 5668 5673 5679 5683 5687 5693 5698 5700 5702 5705 5707 5710 5713 5715 5718 5721 5722 5723 5726 5728 5730 5732 5733 5734 5736 5738 5740 5742 5744 5746 5748 5749 5751 5752 5754 5755 5757 5759 5762 5764 5767 5772 5778 5782 5784 5786 5790 5794 5796 5797 5798 5799 5800 5802 5804 5804 5805
5455 5467 5477 5489 5500 5508 5517 5528 5534 5536 5538 5546 5556 5564 5569 5577 5586 5592 5596 5601 5607 5612 5617 5622 5628 5633 5639 5646 5651 5655 5660 5665 5670 5676 5680 5685 5690 5693 5696 5697 5700 5703 5706 5709 5711 5714 5716 5718 5719 5721 5723 5725 5727 5729 5731 5733 5735 5737 5739 5741 5743 5745 5746 5748 5749 5750 5752 5753 5754 5755 5756 5761 5769 5775 5779 5782 5783 5786 5789 5791 5793 5794 5795 5796 5797 5799 5800 5801
5452 5463 5474 5487 5497 5503 5512 5519 5523 5527 5536 5548 5557 5561 5568 5576 5582 5587 5592 5597 5603 5609 5617 5623 5627 5632 5637 5642 5645 5650 5656 5661 5666 5671 5675 5680 5685 5690 5692 5693 5695 5698 5700 5703 5706 5708 5711 5713 5715 5717 5719 5722 5725 5727 5730 5732 5733 5735 5736 5738 5741 5743 5744 5746 5746 5747 5750 5750 5751 5751 5750 5756 5766 5771 5775 5779 5780 5782 5784 5786 5788 5789 5790 5792 5792 5793 5794 5796
5450 5457 5468 5481 5489 5496 5504 5509 5517 5528 5538 5544 5549 5555 5564 5571 5577 5583 5587 5592 5598 5605 5613 5620 5624 5629 5634 5639 5643 5648 5652 5657 5662 5667 5672 5677 5682 5686 5688 5690 5692 5694 5697 5700 5702 5704 5708 5710 5712 5714 5717 5720 5722 5724 5726 5728 5730 5731 5732 5734 5736 5737 5739 5741 5741 5744 5746 5746 5749 5749 5746 5752 5761 5765 5769 5774 5774 5776 5779 5781 5783 5784 5785 5786 5787 5788 5789 5790
5447 5456 5470 5481 5487 5493 5500 5505 5515 5526 5532 5538 5546 5553 5559 5566 5573 5579 5582 5586 5593 5599 5606 5613 5618 5624 5631 5637 5641 5645 5650 5655 5659 5665 5670 5674 5678 5680 5683 5686 5689 5691 5693 5696 5698 5702 5705 5707 5708 5711 5713 5715 5717 5719 5722 5724 5725 5726 5727 5729 5731 5732 5734 5736 5738 5741 5742 5742 5745 5745 5744 5750 5757 5760 5763 5766 5768 5770 5773 5775 5778 5779 5780 5780 5781 5782 5783 5784
5447 5459 5471 5478 5485 5494 5499 5501 5509 5518 5525 5534 5542 5547 5553 5561 5569 5575 5579 5584 5589 5595 5602 5608 5614 5622 5629 5634 5639 5643 5648 5653 5657 5662 5666 5669 5673 5676 5679 5682 5685 5687 5690 5693 5697 5700 5701 5701 5703 5706 5707 5709 5711 5713 5716 5718 5719 5720 5721 5724 5726 5729 5731 5733 5735 5737 5737 5740 5742 5742 5744 5749 5753 5757 5759 5760 5762 5765 5767 5769 5771 5772 5774 5774 5775 5777 5778 5779
5446 5458 5467 5474 5482 5490 5496 5503 5512 5520 5525 5532 5538 5544 5552 5559 5566 5573 5579 5583 5587 5593 5599 5605 5613 5619 5625 5631 5636 5640 5645 5649 5654 5658 5661 5665 5669 5672 5675 5679 5683 5685 5689 5692 5694 5696 5697 5698 5700 5701 5702 5705 5707 5710 5714 5716 5716 5718 5720 5723 5725 5728 5729 5731 5733 5734 5735 5738 5739 5740 5743 5745 5748 5752 5752 5753 5757 5759 5761 5762 5764 5766 5767 5768 5769 5770 5771 5772
5443 5448 5455 5464 5474 5483 5492 5501 5511 5518 5523 5529 5536 5542 5549 5557 5564 5570 5575 5578 5583 5588 5594 5602 5609 5614 5619 5625 5629 5633 5639 5644 5648 5652 5657 5661 5665 5668 5672 5676 5680 5683 5686 5688 5689 5691 5692 5693 5696 5698 5701 5704 5707 5710 5714 5716 5716 5718 5721 5723 5724 5726 5727 5729 5729 5729 5732 5734 5734 5736 5740 5740 5741 5745 5745 5747 5752 5754 5755 5757 5758 5759 5760 5760 5762 5763 5764 5765
5443 5444 5446 5450 5460 5472 5482 5492 5501 5510 5520 5528 5534 5541 5548 5555 5560 5564 5568 5573 5579 5585 5590 5597 5602 5607 5613 5619 5623 5628 5634 5638 5643 5647 5652 5657 5661 5666 5669 5672 5675 5678 5681 5682 5684 5686 5686 5688 5692 5696 5698 5700 5702 5705 5708 5710 5711 5714 5716 5718 5720 5722 5723 5723 5723 5724 5727 5728 5728 5732 5736 5736 5738 5740 5740 5743 5747 5749 5750 5751 5751 5751 5751 5753 5755 5757 5758 5759
5438 5446 5453 5458 5462 5468 5477 5487 5498 5509 5520 5528 5534 5540 5545 5550 5554 5558 5563 5569 5575 5580 5585 5590 5596 5603 5611 5617 5621 5625 5629 5633 5638 5643 5647 5651 5655 5660 5663 5666 5669 5672 5675 5676 5679 5680 5682 5684 5689 5691 5693 5695 5697 5699 5701 5703 5705 5707 5709 5712 5714 5715 5716 5716 5716 5719 5721 5721 5724 5728 5731 5732 5733 5735 5737 5738 5739 5742 5743 5743 5743 5744 5745 5747 5749 5750 5751 5751
5437 5444 5454 5463 5471 5480 5490 5500 5508 5514 5520 5525 5530 5535 5541 5546 5550 5555 5560 5565 5569 5574 5580 5586 5592 5600 5608 5614 5618 5620 5623 5627 5633 5638 5643 5648 5651 5654 5657 5659 5662 5666 5668 5670 5673 5675 5677 5679 5683 5685 5688 5690 5692 5694 5696 5698 5699 5701 5702 5704 5706 5707 5709 5710 5712 5714 5715 5717 5721 5723 5725 5728 5729 5731 5733 5734 5734 5736 5738 5738 5739 5740 5741 5742 5742 5742 5742 5742
5440 5446 5453 5461 5472 5484 5493 5500 5506 5511 5517 5521 5526 5532 5538 5543 5548 5552 5557 5561 5566 5570 5576 5582 5588 5596 5604 5609 5612 5616 5622 5629 5634 5637 5641 5644 5646 5650 5652 5653 5657 5660 5662 5664 5666 5669 5671 5674 5677 5680 5682 5684 5687 5689 5690 5692 5694 5695 5696 5698 5701 5703 5705 5706 5708 5709 5710 5713 5718 5719 5719 5723 5726 5729 5731 5731 5731 5732 5732 5733 5735 5736 5735 5735 5734 5733 5733 5734
5443 5452 5460 5467 5474 5480 5486 5493 5500 5505 5510 5515 5522 5529 5534 5539 5545 5550 5555 5560 5564 5569 5574 5579 5585 5592 5599 5603 5608 5615 5622 5628 5633 5638 5641 5644 5646 5649 5649 5651 5653 5655 5657 5660 5662 5665 5668 5669 5672 5676 5676 5679 5683 5684 5685 5687 5688 5688 5690 5695 5699 5700 5701 5703 5704 5705 5707 5711 5714 5714 5716 5720 5723 5725 5727 5725 5724 5724 5725 5726 5727 5728 5727 5726 5725 5726 5727 5729
5443 5451 5458 5465 5472 5477 5483 5490 5495 5499 5506 5515 5522 5526 5530 5536 5541 5546 5550 5556 5562 5568 5573 5578 5582 5587 5593 5599 5606 5614 5620 5625 5629 5634 5637 5641 5644 5646 5648 5649 5651 5653 5655 5658 5660 5663 5665 5667 5670 5672 5673 5675 5678 5679 5681 5683 5681 5683 5690 5697 5698 5697 5697 5698 5699 5702 5705 5708 5709 5710 5713 5717 5718 5717 5717 5717 5718 5719 5718 5718 5719 5719 5719 5719 5719 5721 5722 5724